Weather in Dolgorukovo

Russia / Kaliningrad Oblast     54°25′27″N   20°31′09″E
temp.,
°C
wind,
m/s
gust,
m/s
humid.,
%
clouds,
%
prec.,
mm/h
press.,
hPa
HPBL,
m
2 march, tue
tue223:00+3w613860 0.0 1030423
02:00+3w714900 0.0 1030402
05:00+2w6159234 0.0 1028456
08:00+3w6139344 0.0 1029433
11:00+5wnw6108457 0.0 1029484
14:00+6wnw688071 0.0 1030470
17:00+5nw478312 0.0 1030384
20:00+2nw23936 0.0 103161
3 march, wed
wed323:00+1nw11900 0.0 103222
02:00+1wsw22860 0.0 103222
05:00+1wsw228733 0.0 103027
08:000sw239137 0.0 103036
11:00+5sw36750 0.0 1028361
14:00+7wsw476828 0.0 1026559
17:00+7wsw37700 0.0 1022426
20:00+4sw49740 0.0 1020204
4 march, thu
thu423:00+4wsw511810 0.0 1017256
02:00+3wsw512890 0.0 1014348
05:00+3w6139421 0.0 1010470
08:00+3wnw6119157 0.0 1010605
11:00+3wnw5891100 0.0 1010487
14:00+2n5981100 0.2 1012718
17:00+1n6965100 0.0 10121094
20:00−1n41076100 0.0 1014554
5 march, fri
fri523:00−1nnw37815 0.0 1015239
02:00−2n25743 0.0 1016173
05:00−2nnw11669 0.0 101624
08:00−2w12734 0.0 101736
11:00+1nnw235924 0.1 1018813
14:00+3nw335246 0.7 10191005
17:00+1nnw356379 0.4 1019883
20:00−1wsw128089 0.6 102151
6 march, sat
sat623:00−3nne239178 0.1 1023197
02:00−3nw488164 0.1 1025307
05:00−4n23780 0.0 102591
08:00−3wsw23680 0.0 1026115
11:00+1wnw47472 0.0 10261447
14:00+2w7105044 0.0 10251421
17:00+2wsw6125160 0.0 10221299
20:000wsw8157280 0.0 1019864